| time (UTC) | temp F | wind direction | speed MPH | gust MPH | rain 1hr in | rain 24hr in | rain mn in | humidity % | barometer mb |
| 20260510015003 | 64 | 195 | 5.0 | 9.0 | 0.00 | 0.00 | 0.00 | 64 | 1008.7 |
| 20260510014503 | 64 | 192 | 6.0 | 11.0 | 0.00 | 0.00 | 0.00 | 63 | 1008.6 |
| 20260510014003 | 64 | 187 | 6.0 | 12.0 | 0.00 | 0.00 | 0.00 | 63 | 1008.5 |
| 20260510013503 | 64 | 182 | 5.0 | 12.0 | 0.00 | 0.00 | 0.00 | 63 | 1008.6 |
| 20260510013003 | 64 | 178 | 5.0 | 11.0 | 0.00 | 0.00 | 0.00 | 63 | 1008.6 |
| 20260510012503 | 64 | 184 | 5.0 | 11.0 | 0.00 | 0.00 | 0.00 | 63 | 1008.7 |
| 20260510012003 | 64 | 183 | 5.0 | 11.0 | 0.00 | 0.00 | 0.00 | 63 | 1008.7 |
| 20260510011503 | 64 | 176 | 6.0 | 12.0 | 0.00 | 0.00 | 0.00 | 62 | 1008.7 |
| 20260510011003 | 64 | 180 | 6.0 | 12.0 | 0.00 | 0.00 | 0.00 | 62 | 1008.8 |
| 20260510010517 | 64 | 183 | 6.0 | 16.0 | 0.00 | 0.00 | 0.00 | 62 | 1008.8 |
| 20260510010003 | 65 | 185 | 7.0 | 16.0 | 0.00 | 0.00 | 0.00 | 62 | 1008.7 |
| 20260510005503 | 65 | 185 | 8.0 | 17.0 | 0.00 | 0.00 | 0.00 | 61 | 1008.8 |
| 20260510005003 | 65 | 184 | 8.0 | 18.0 | 0.00 | 0.00 | 0.00 | 61 | 1008.8 |
| 20260510004503 | 65 | 189 | 7.0 | 18.0 | 0.00 | 0.00 | 0.00 | 62 | 1008.8 |
| 20260510004003 | 65 | 200 | 7.0 | 14.0 | 0.00 | 0.00 | 0.00 | 62 | 1008.8 |
| 20260510003503 | 65 | 183 | 7.0 | 16.0 | 0.00 | 0.00 | 0.00 | 61 | 1008.7 |
| 20260510003003 | 65 | 178 | 8.0 | 16.0 | 0.00 | 0.00 | 0.00 | 61 | 1008.6 |
| 20260510002517 | 65 | 179 | 7.0 | 15.0 | 0.00 | 0.00 | 0.00 | 61 | 1008.7 |
| 20260510002003 | 65 | 175 | 8.0 | 15.0 | 0.00 | 0.00 | 0.00 | 61 | 1008.6 |
| 20260510001503 | 65 | 181 | 7.0 | 16.0 | 0.00 | 0.00 | 0.00 | 60 | 1008.7 |
| 20260510001003 | 65 | 179 | 7.0 | 16.0 | 0.00 | 0.00 | 0.00 | 59 | 1008.7 |
| 20260510000503 | 66 | 182 | 7.0 | 14.0 | 0.00 | 0.00 | 0.00 | 59 | 1008.7 |
| 20260510000003 | 66 | 187 | 7.0 | 17.0 | 0.00 | 0.00 | 0.00 | 58 | 1008.7 |
| 20260509235503 | 66 | 184 | 7.0 | 17.0 | 0.00 | 0.00 | 0.00 | 58 | 1008.8 |
| 20260509235003 | 66 | 177 | 7.0 | 19.0 | 0.00 | 0.00 | 0.00 | 58 | 1008.7 |
| 20260509234503 | 66 | 186 | 7.0 | 19.0 | 0.00 | 0.00 | 0.00 | 58 | 1008.8 |
| 20260509234003 | 66 | 203 | 7.0 | 14.0 | 0.00 | 0.00 | 0.00 | 58 | 1008.8 |
| 20260509233517 | 66 | 195 | 7.0 | 14.0 | 0.00 | 0.00 | 0.00 | 58 | 1008.7 |
| 20260509233003 | 66 | 181 | 7.0 | 16.0 | 0.00 | 0.00 | 0.00 | 58 | 1008.6 |
| 20260509232503 | 66 | 179 | 6.0 | 16.0 | 0.00 | 0.00 | 0.00 | 59 | 1008.8 |
| 20260509232003 | 66 | 176 | 7.0 | 13.0 | 0.00 | 0.00 | 0.00 | 59 | 1008.9 |
| 20260509231503 | 66 | 173 | 7.0 | 12.0 | 0.00 | 0.00 | 0.00 | 60 | 1008.8 |
| 20260509231017 | 66 | 172 | 6.0 | 13.0 | 0.00 | 0.00 | 0.00 | 60 | 1008.8 |
| 20260509230503 | 66 | 173 | 6.0 | 13.0 | 0.00 | 0.00 | 0.00 | 60 | 1008.8 |
| 20260509230017 | 66 | 176 | 5.0 | 12.0 | 0.00 | 0.00 | 0.00 | 60 | 1008.9 |
| 20260509225517 | 66 | 182 | 4.0 | 11.0 | 0.00 | 0.00 | 0.00 | 59 | 1009.0 |
| 20260509225003 | 66 | 175 | 5.0 | 16.0 | 0.00 | 0.00 | 0.00 | 59 | 1009.0 |
| 20260509224503 | 66 | 166 | 6.0 | 16.0 | 0.00 | 0.00 | 0.00 | 59 | 1009.0 |
| 20260509224003 | 66 | 170 | 5.0 | 15.0 | 0.00 | 0.00 | 0.00 | 59 | 1009.0 |
| 20260509223503 | 66 | 175 | 5.0 | 15.0 | 0.00 | 0.00 | 0.00 | 59 | 1009.1 |
| 20260509223017 | 66 | 167 | 3.0 | 9.0 | 0.00 | 0.00 | 0.00 | 60 | 1009.2 |
| 20260509222503 | 66 | 159 | 4.0 | 11.0 | 0.00 | 0.00 | 0.00 | 59 | 1009.2 |
| 20260509222003 | 66 | 161 | 4.0 | 11.0 | 0.00 | 0.00 | 0.00 | 59 | 1009.2 |
| 20260509221503 | 66 | 158 | 4.0 | 10.0 | 0.00 | 0.00 | 0.00 | 59 | 1009.2 |
| 20260509221003 | 66 | 175 | 4.0 | 11.0 | 0.00 | 0.00 | 0.00 | 60 | 1009.2 |
| 20260509220503 | 65 | 201 | 4.0 | 11.0 | 0.00 | 0.00 | 0.00 | 61 | 1009.3 |
| 20260509220017 | 65 | 236 | 3.0 | 10.0 | 0.00 | 0.00 | 0.00 | 61 | 1009.2 |
| 20260509215503 | 66 | 277 | 1.0 | 9.0 | 0.00 | 0.00 | 0.00 | 60 | 1009.3 |
| 20260509215003 | 66 | 257 | 1.0 | 4.0 | 0.00 | 0.00 | 0.00 | 59 | 1009.2 |
| 20260509214503 | 66 | 253 | 0.0 | 2.0 | 0.00 | 0.00 | 0.00 | 59 | 1009.3 |
| 20260509214017 | 66 | 253 | 1.0 | 2.0 | 0.00 | 0.00 | 0.00 | 58 | 1009.2 |
| 20260509213503 | 67 | 252 | 1.0 | 3.0 | 0.00 | 0.00 | 0.00 | 58 | 1009.2 |
| 20260509213003 | 67 | 229 | 1.0 | 5.0 | 0.00 | 0.00 | 0.00 | 58 | 1009.2 |
| 20260509212503 | 67 | 247 | 2.0 | 5.0 | 0.00 | 0.00 | 0.00 | 58 | 1009.3 |
| 20260509212003 | 67 | 256 | 2.0 | 7.0 | 0.00 | 0.00 | 0.00 | 58 | 1009.2 |
| 20260509211503 | 67 | 219 | 3.0 | 7.0 | 0.00 | 0.00 | 0.00 | 57 | 1009.1 |
| 20260509211003 | 67 | 184 | 4.0 | 10.0 | 0.00 | 0.00 | 0.00 | 57 | 1009.1 |
| 20260509210503 | 67 | 203 | 5.0 | 11.0 | 0.00 | 0.00 | 0.00 | 57 | 1009.1 |
| 20260509210003 | 67 | 226 | 3.0 | 11.0 | 0.00 | 0.00 | 0.00 | 57 | 1009.2 |
| 20260509205517 | 67 | 195 | 1.0 | 9.0 | 0.00 | 0.00 | 0.00 | 58 | 1009.1 |
| 20260509205003 | 67 | 200 | 1.0 | 6.0 | 0.00 | 0.00 | 0.00 | 58 | 1009.1 |
| 20260509204503 | 67 | 193 | 2.0 | 6.0 | 0.00 | 0.00 | 0.00 | 58 | 1009.2 |
| 20260509204003 | 67 | 190 | 2.0 | 4.0 | 0.00 | 0.00 | 0.00 | 58 | 1009.2 |
| 20260509203503 | 67 | 186 | 2.0 | 12.0 | 0.00 | 0.00 | 0.00 | 58 | 1009.2 |
| 20260509203003 | 67 | 167 | 3.0 | 12.0 | 0.00 | 0.00 | 0.00 | 57 | 1009.0 |
| 20260509202503 | 68 | 120 | 2.0 | 5.0 | 0.00 | 0.00 | 0.00 | 58 | 1009.0 |
| 20260509202003 | 68 | 108 | 1.0 | 4.0 | 0.00 | 0.00 | 0.00 | 57 | 1008.9 |
| 20260509201517 | 68 | 267 | 0.0 | 3.0 | 0.00 | 0.00 | 0.00 | 57 | 1008.9 |
| 20260509201003 | 68 | 217 | 1.0 | 3.0 | 0.00 | 0.00 | 0.00 | 57 | 1009.0 |
| 20260509200503 | 68 | 167 | 2.0 | 8.0 | 0.00 | 0.00 | 0.00 | 56 | 1008.8 |
| 20260509200017 | 69 | 134 | 3.0 | 8.0 | 0.00 | 0.00 | 0.00 | 56 | 1008.8 |
| 20260509195503 | 69 | 124 | 3.0 | 8.0 | 0.00 | 0.00 | 0.00 | 55 | 1008.8 |
| 20260509195003 | 69 | 151 | 3.0 | 9.0 | 0.00 | 0.00 | 0.00 | 55 | 1008.7 |
| 20260509194517 | 69 | 145 | 3.0 | 9.0 | 0.00 | 0.00 | 0.00 | 55 | 1008.7 |
| 20260509194003 | 69 | 121 | 2.0 | 7.0 | 0.00 | 0.00 | 0.00 | 54 | 1008.7 |
| 20260509193503 | 69 | 120 | 2.0 | 9.0 | 0.00 | 0.00 | 0.00 | 53 | 1008.8 |
| 20260509193003 | 70 | 126 | 2.0 | 9.0 | 0.00 | 0.00 | 0.00 | 53 | 1008.7 |
| 20260509192503 | 70 | 138 | 2.0 | 7.0 | 0.00 | 0.00 | 0.00 | 53 | 1008.7 |
| 20260509192003 | 70 | 153 | 4.0 | 10.0 | 0.00 | 0.00 | 0.00 | 52 | 1008.8 |
| 20260509191503 | 70 | 161 | 4.0 | 11.0 | 0.00 | 0.00 | 0.00 | 52 | 1008.8 |
| 20260509191017 | 70 | 159 | 4.0 | 11.0 | 0.00 | 0.00 | 0.00 | 52 | 1008.7 |
| 20260509190503 | 70 | 149 | 2.0 | 6.0 | 0.00 | 0.00 | 0.00 | 52 | 1008.6 |
| 20260509190003 | 70 | 134 | 1.0 | 4.0 | 0.00 | 0.00 | 0.00 | 52 | 1008.6 |
| 20260509185517 | 70 | 141 | 3.0 | 14.0 | 0.00 | 0.00 | 0.00 | 52 | 1008.5 |
| 20260509185003 | 70 | 140 | 3.0 | 14.0 | 0.00 | 0.00 | 0.00 | 52 | 1008.5 |
| 20260509184503 | 69 | 120 | 2.0 | 7.0 | 0.00 | 0.00 | 0.00 | 55 | 1008.6 |
| 20260509184017 | 69 | 164 | 3.0 | 7.0 | 0.00 | 0.00 | 0.00 | 55 | 1008.4 |
| 20260509183503 | 70 | 180 | 2.0 | 7.0 | 0.00 | 0.00 | 0.00 | 55 | 1008.4 |
| 20260509183003 | 70 | 3 | 1.0 | 3.0 | 0.00 | 0.00 | 0.00 | 56 | 1008.4 |
| 20260509182503 | 70 | 350 | 1.0 | 5.0 | 0.00 | 0.00 | 0.00 | 58 | 1008.4 |
| 20260509182003 | 70 | 343 | 1.0 | 5.0 | 0.00 | 0.00 | 0.00 | 54 | 1008.3 |
| 20260509181503 | 70 | 331 | 0.0 | 4.0 | 0.00 | 0.00 | 0.00 | 58 | 1008.4 |
| 20260509181003 | 70 | 311 | 0.0 | 3.0 | 0.00 | 0.00 | 0.00 | 57 | 1008.3 |
| 20260509180503 | 70 | 310 | 1.0 | 4.0 | 0.00 | 0.00 | 0.00 | 57 | 1008.3 |
| 20260509180003 | 70 | 310 | 1.0 | 4.0 | 0.00 | 0.00 | 0.00 | 57 | 1008.3 |
| 20260509175503 | 70 | 309 | 1.0 | 2.0 | 0.00 | 0.00 | 0.00 | 57 | 1008.2 |
| 20260509175003 | 70 | 309 | 1.0 | 4.0 | 0.00 | 0.00 | 0.00 | 57 | 1008.1 |
| 20260509174503 | 71 | 305 | 1.0 | 4.0 | 0.00 | 0.00 | 0.00 | 55 | 1008.1 |
| 20260509174003 | 71 | 295 | 2.0 | 4.0 | 0.00 | 0.00 | 0.00 | 56 | 1008.0 |
| 20260509173503 | 71 | 252 | 1.0 | 4.0 | 0.00 | 0.00 | 0.00 | 54 | 1008.0 |
| 20260509173017 | 71 | 188 | 1.0 | 3.0 | 0.00 | 0.01 | 0.00 | 54 | 1007.9 |
| 20260509172517 | 71 | 188 | 1.0 | 2.0 | 0.00 | 0.02 | 0.00 | 53 | 1007.9 |
| 20260509172017 | 71 | 187 | 1.0 | 2.0 | 0.00 | 0.03 | 0.00 | 54 | 1008.0 |
| 20260509171503 | 71 | 186 | 1.0 | 2.0 | 0.00 | 0.04 | 0.00 | 52 | 1007.9 |
| 20260509171017 | 71 | 184 | 1.0 | 3.0 | 0.00 | 0.04 | 0.00 | 52 | 1007.8 |
| 20260509170503 | 71 | 184 | 2.0 | 8.0 | 0.00 | 0.04 | 0.00 | 51 | 1007.7 |
| 20260509170003 | 71 | 208 | 3.0 | 8.0 | 0.00 | 0.04 | 0.00 | 50 | 1007.7 |
| 20260509165503 | 71 | 207 | 4.0 | 7.0 | 0.00 | 0.04 | 0.00 | 50 | 1007.6 |
| 20260509165003 | 71 | 179 | 3.0 | 7.0 | 0.00 | 0.04 | 0.00 | 52 | 1007.6 |
| 20260509164517 | 71 | 178 | 3.0 | 8.0 | 0.00 | 0.04 | 0.00 | 51 | 1007.7 |
| 20260509164003 | 71 | 179 | 4.0 | 8.0 | 0.00 | 0.04 | 0.00 | 51 | 1007.7 |
| 20260509163503 | 71 | 170 | 4.0 | 9.0 | 0.00 | 0.04 | 0.00 | 51 | 1007.7 |
| 20260509163017 | 71 | 177 | 5.0 | 10.0 | 0.00 | 0.04 | 0.00 | 50 | 1007.7 |
| 20260509162503 | 71 | 193 | 5.0 | 10.0 | 0.00 | 0.04 | 0.00 | 50 | 1007.6 |
| 20260509162003 | 71 | 184 | 5.0 | 10.0 | 0.00 | 0.04 | 0.00 | 50 | 1007.7 |
| 20260509161503 | 71 | 197 | 5.0 | 10.0 | 0.00 | 0.04 | 0.00 | 50 | 1007.7 |
| 20260509161003 | 71 | 200 | 5.0 | 10.0 | 0.00 | 0.04 | 0.00 | 50 | 1007.9 |
| 20260509160503 | 71 | 174 | 6.0 | 15.0 | 0.00 | 0.04 | 0.00 | 49 | 1007.9 |
| 20260509160003 | 71 | 162 | 6.0 | 15.0 | 0.00 | 0.04 | 0.00 | 49 | 1007.9 |
| 20260509155517 | 71 | 165 | 6.0 | 13.0 | 0.00 | 0.04 | 0.00 | 50 | 1007.8 |
| 20260509155003 | 72 | 174 | 6.0 | 13.0 | 0.00 | 0.04 | 0.00 | 49 | 1007.9 |
| 20260509154517 | 72 | 169 | 6.0 | 11.0 | 0.00 | 0.04 | 0.00 | 49 | 1007.9 |
| 20260509154003 | 72 | 162 | 5.0 | 12.0 | 0.00 | 0.04 | 0.00 | 49 | 1007.8 |
| 20260509153503 | 72 | 154 | 5.0 | 12.0 | 0.00 | 0.04 | 0.00 | 50 | 1007.9 |
| 20260509153003 | 72 | 161 | 5.0 | 11.0 | 0.00 | 0.04 | 0.00 | 49 | 1007.8 |
| 20260509152503 | 72 | 177 | 5.0 | 10.0 | 0.00 | 0.04 | 0.00 | 50 | 1008.0 |
| 20260509152003 | 72 | 167 | 5.0 | 12.0 | 0.00 | 0.04 | 0.00 | 49 | 1007.8 |
| 20260509151503 | 72 | 162 | 6.0 | 13.0 | 0.00 | 0.04 | 0.00 | 49 | 1007.9 |
| 20260509151017 | 72 | 166 | 6.0 | 13.0 | 0.00 | 0.04 | 0.00 | 48 | 1008.0 |
| 20260509150503 | 72 | 170 | 6.0 | 13.0 | 0.00 | 0.04 | 0.00 | 48 | 1008.1 |
| 20260509150003 | 72 | 160 | 5.0 | 12.0 | 0.00 | 0.04 | 0.00 | 49 | 1008.1 |
| 20260509145517 | 72 | 142 | 4.0 | 12.0 | 0.00 | 0.04 | 0.00 | 49 | 1008.0 |
| 20260509145017 | 72 | 160 | 5.0 | 11.0 | 0.00 | 0.04 | 0.00 | 50 | 1008.0 |
| 20260509144503 | 72 | 173 | 6.0 | 14.0 | 0.00 | 0.04 | 0.00 | 50 | 1008.0 |
| 20260509144003 | 72 | 168 | 6.0 | 14.0 | 0.00 | 0.04 | 0.00 | 49 | 1008.3 |
| 20260509143503 | 72 | 161 | 5.0 | 12.0 | 0.00 | 0.04 | 0.00 | 49 | 1008.2 |
| 20260509143003 | 72 | 160 | 5.0 | 16.0 | 0.00 | 0.04 | 0.00 | 50 | 1008.1 |
| 20260509142503 | 71 | 161 | 6.0 | 16.0 | 0.00 | 0.04 | 0.00 | 52 | 1008.2 |
| 20260509142003 | 71 | 158 | 7.0 | 16.0 | 0.00 | 0.04 | 0.00 | 52 | 1008.3 |
| 20260509141503 | 71 | 162 | 7.0 | 16.0 | 0.00 | 0.04 | 0.00 | 52 | 1008.3 |
| 20260509141003 | 71 | 171 | 8.0 | 17.0 | 0.00 | 0.04 | 0.00 | 51 | 1008.3 |
| 20260509140517 | 71 | 177 | 8.0 | 17.0 | 0.00 | 0.04 | 0.00 | 51 | 1008.6 |
| 20260509140003 | 71 | 181 | 8.0 | 16.0 | 0.00 | 0.04 | 0.00 | 51 | 1008.7 |
| 20260509135503 | 71 | 183 | 7.0 | 16.0 | 0.00 | 0.04 | 0.00 | 50 | 1008.6 |
| 20260509135003 | 71 | 182 | 8.0 | 17.0 | 0.00 | 0.04 | 0.00 | 50 | 1008.7 |
| 20260509134517 | 71 | 173 | 10.0 | 22.0 | 0.00 | 0.04 | 0.00 | 49 | 1008.7 |
| 20260509134003 | 71 | 168 | 9.0 | 22.0 | 0.00 | 0.04 | 0.00 | 49 | 1008.6 |
| 20260509133503 | 71 | 168 | 7.0 | 17.0 | 0.00 | 0.04 | 0.00 | 50 | 1008.9 |
| 20260509133017 | 71 | 159 | 7.0 | 16.0 | 0.00 | 0.04 | 0.00 | 52 | 1008.8 |
| 20260509132503 | 71 | 166 | 7.0 | 16.0 | 0.00 | 0.04 | 0.00 | 52 | 1008.7 |
| 20260509132003 | 70 | 169 | 6.0 | 13.0 | 0.00 | 0.04 | 0.00 | 54 | 1008.7 |
| 20260509131503 | 70 | 166 | 6.0 | 13.0 | 0.00 | 0.04 | 0.00 | 54 | 1008.9 |
| 20260509131003 | 70 | 177 | 7.0 | 16.0 | 0.00 | 0.04 | 0.00 | 54 | 1009.0 |
| 20260509130503 | 70 | 172 | 7.0 | 16.0 | 0.00 | 0.04 | 0.00 | 55 | 1009.1 |
| 20260509130003 | 69 | 173 | 7.0 | 16.0 | 0.00 | 0.04 | 0.00 | 55 | 1009.1 |
| 20260509125503 | 69 | 175 | 8.0 | 15.0 | 0.00 | 0.04 | 0.00 | 57 | 1009.2 |
| 20260509125003 | 69 | 172 | 8.0 | 14.0 | 0.00 | 0.04 | 0.00 | 58 | 1009.4 |
| 20260509124503 | 68 | 180 | 7.0 | 17.0 | 0.00 | 0.04 | 0.00 | 58 | 1009.2 |
| 20260509124003 | 68 | 182 | 8.0 | 17.0 | 0.00 | 0.04 | 0.00 | 58 | 1009.4 |
| 20260509123503 | 68 | 181 | 10.0 | 17.0 | 0.00 | 0.04 | 0.00 | 57 | 1009.5 |
| 20260509123017 | 68 | 183 | 11.0 | 18.0 | 0.00 | 0.04 | 0.00 | 57 | 1009.7 |
| 20260509122517 | 68 | 191 | 10.0 | 18.0 | 0.00 | 0.04 | 0.00 | 57 | 1009.7 |
| 20260509122003 | 68 | 190 | 10.0 | 21.0 | 0.00 | 0.04 | 0.00 | 57 | 1009.6 |
| 20260509121503 | 68 | 185 | 11.0 | 21.0 | 0.00 | 0.04 | 0.00 | 57 | 1009.7 |
| 20260509121003 | 68 | 185 | 9.0 | 21.0 | 0.00 | 0.04 | 0.00 | 57 | 1009.7 |
| 20260509120503 | 68 | 184 | 8.0 | 18.0 | 0.00 | 0.04 | 0.00 | 57 | 1009.7 |
| 20260509120003 | 68 | 185 | 9.0 | 19.0 | 0.00 | 0.04 | 0.00 | 58 | 1009.7 |
| 20260509115503 | 68 | 183 | 9.0 | 21.0 | 0.00 | 0.04 | 0.00 | 58 | 1009.9 |
| 20260509115003 | 67 | 176 | 9.0 | 21.0 | 0.00 | 0.04 | 0.00 | 58 | 1009.8 |
| 20260509114517 | 67 | 177 | 9.0 | 20.0 | 0.00 | 0.04 | 0.00 | 57 | 1009.9 |
| 20260509114003 | 68 | 182 | 10.0 | 18.0 | 0.00 | 0.04 | 0.00 | 57 | 1009.9 |
| 20260509113517 | 68 | 181 | 11.0 | 19.0 | 0.00 | 0.04 | 0.00 | 56 | 1010.0 |
| 20260509113003 | 68 | 179 | 9.0 | 19.0 | 0.00 | 0.04 | 0.00 | 55 | 1010.0 |
| 20260509112503 | 68 | 187 | 7.0 | 17.0 | 0.00 | 0.04 | 0.00 | 56 | 1010.1 |
| 20260509112017 | 68 | 194 | 7.0 | 15.0 | 0.00 | 0.04 | 0.00 | 56 | 1010.1 |
| 20260509111503 | 68 | 192 | 7.0 | 16.0 | 0.00 | 0.04 | 0.00 | 56 | 1010.2 |
| 20260509111003 | 68 | 190 | 7.0 | 16.0 | 0.00 | 0.04 | 0.00 | 56 | 1010.1 |
| 20260509110503 | 68 | 200 | 7.0 | 16.0 | 0.00 | 0.04 | 0.00 | 55 | 1010.2 |
| 20260509110003 | 68 | 197 | 8.0 | 16.0 | 0.00 | 0.04 | 0.00 | 56 | 1010.2 |
| 20260509105503 | 68 | 186 | 8.0 | 16.0 | 0.00 | 0.04 | 0.00 | 54 | 1010.3 |
| 20260509105003 | 67 | 180 | 8.0 | 16.0 | 0.00 | 0.04 | 0.00 | 55 | 1010.2 |
| 20260509104517 | 67 | 177 | 6.0 | 14.0 | 0.00 | 0.04 | 0.00 | 55 | 1010.2 |
| 20260509104003 | 68 | 185 | 5.0 | 11.0 | 0.00 | 0.04 | 0.00 | 55 | 1010.3 |
| 20260509103503 | 68 | 190 | 3.0 | 9.0 | 0.00 | 0.04 | 0.00 | 55 | 1010.2 |
| 20260509103003 | 68 | 198 | 2.0 | 6.0 | 0.00 | 0.04 | 0.00 | 56 | 1010.1 |
| 20260509102503 | 68 | 192 | 3.0 | 9.0 | 0.00 | 0.04 | 0.00 | 55 | 1010.0 |
| 20260509102003 | 68 | 178 | 5.0 | 13.0 | 0.00 | 0.04 | 0.00 | 55 | 1009.7 |
| 20260509101503 | 68 | 177 | 6.0 | 13.0 | 0.00 | 0.04 | 0.00 | 55 | 1009.8 |
| 20260509101003 | 68 | 181 | 6.0 | 11.0 | 0.00 | 0.04 | 0.00 | 54 | 1009.8 |
| 20260509100503 | 68 | 180 | 7.0 | 14.0 | 0.00 | 0.04 | 0.00 | 54 | 1009.7 |
| 20260509100004 | 68 | 186 | 7.0 | 14.0 | 0.00 | 0.04 | 0.00 | 54 | 1009.7 |
| 20260509095503 | 68 | 200 | 6.0 | 13.0 | 0.00 | 0.04 | 0.00 | 54 | 1009.8 |
| 20260509095003 | 67 | 195 | 6.0 | 11.0 | 0.00 | 0.04 | 0.00 | 54 | 1009.7 |
| 20260509094517 | 68 | 186 | 5.0 | 12.0 | 0.00 | 0.04 | 0.00 | 54 | 1009.6 |
| 20260509094003 | 68 | 189 | 5.0 | 12.0 | 0.00 | 0.04 | 0.00 | 54 | 1009.7 |
| 20260509093503 | 68 | 197 | 4.0 | 8.0 | 0.00 | 0.04 | 0.00 | 57 | 1009.7 |
| 20260509093058 | 67 | 211 | 4.0 | 8.0 | 0.00 | 0.04 | 0.00 | 56 | 1009.1 |
| 20260509093017 | 67 | 187 | 3.0 | 8.0 | 0.00 | 0.04 | 0.00 | 57 | 1009.5 |
| 20260509092503 | 67 | 175 | 3.0 | 9.0 | 0.00 | 0.04 | 0.00 | 57 | 1009.5 |
| 20260509092003 | 67 | 194 | 3.0 | 9.0 | 0.00 | 0.04 | 0.00 | 56 | 1009.5 |
| 20260509091503 | 67 | 236 | 2.0 | 6.0 | 0.00 | 0.04 | 0.00 | 59 | 1009.7 |
| 20260509091017 | 67 | 217 | 3.0 | 6.0 | 0.00 | 0.04 | 0.00 | 57 | 1009.6 |
| 20260509090517 | 67 | 208 | 3.0 | 7.0 | 0.00 | 0.04 | 0.00 | 57 | 1009.7 |
| 20260509090003 | 66 | 198 | 3.0 | 7.0 | 0.00 | 0.04 | 0.00 | 60 | 1009.6 |
| 20260509085503 | 66 | 172 | 3.0 | 7.0 | 0.00 | 0.04 | 0.00 | 59 | 1009.7 |
| 20260509085003 | 66 | 182 | 3.0 | 8.0 | 0.00 | 0.04 | 0.00 | 57 | 1009.8 |
| 20260509084517 | 66 | 206 | 5.0 | 11.0 | 0.00 | 0.04 | 0.00 | 57 | 1009.9 |
| 20260509084003 | 66 | 191 | 6.0 | 14.0 | 0.00 | 0.04 | 0.00 | 58 | 1009.9 |
| 20260509083517 | 66 | 167 | 6.0 | 14.0 | 0.00 | 0.04 | 0.00 | 57 | 1010.0 |
| 20260509083044 | 65 | 203 | 5.0 | 12.0 | 0.00 | 0.04 | 0.00 | 58 | 1009.4 |
| 20260509083003 | 66 | 166 | 6.0 | 14.0 | 0.00 | 0.04 | 0.00 | 58 | 1009.9 |
| 20260509082503 | 66 | 191 | 7.0 | 19.0 | 0.00 | 0.04 | 0.00 | 58 | 1009.9 |
| 20260509082003 | 66 | 199 | 9.0 | 24.0 | 0.00 | 0.04 | 0.00 | 57 | 1010.0 |
| 20260509081532 | 65 | 184 | 8.0 | 20.0 | 0.00 | 0.04 | 0.00 | 57 | 1009.4 |
| 20260509081503 | 66 | 191 | 10.0 | 24.0 | 0.00 | 0.04 | 0.00 | 57 | 1010.0 |
| 20260509081003 | 66 | 190 | 10.0 | 20.0 | 0.00 | 0.04 | 0.00 | 57 | 1010.0 |
| 20260509080517 | 66 | 196 | 11.0 | 20.0 | 0.00 | 0.04 | 0.00 | 57 | 1009.9 |
| 20260509080021 | 65 | 179 | 9.0 | 21.0 | 0.00 | 0.04 | 0.00 | 57 | 1009.4 |
| 20260509080003 | 66 | 201 | 12.0 | 22.0 | 0.00 | 0.04 | 0.00 | 57 | 1010.1 |
| 20260509075503 | 66 | 204 | 12.0 | 22.0 | 0.00 | 0.04 | 0.00 | 57 | 1010.1 |
| 20260509075003 | 66 | 203 | 12.0 | 22.0 | 0.00 | 0.04 | 0.00 | 58 | 1009.9 |
| 20260509074517 | 66 | 200 | 11.0 | 22.0 | 0.00 | 0.04 | 0.00 | 58 | 1010.1 |
| 20260509074513 | 65 | 159 | 11.0 | 21.0 | 0.00 | 0.04 | 0.00 | 58 | 1009.6 |
| 20260509074003 | 66 | 196 | 10.0 | 19.0 | 0.00 | 0.04 | 0.00 | 58 | 1010.3 |
| 20260509073503 | 66 | 183 | 11.0 | 27.0 | 0.00 | 0.04 | 0.00 | 58 | 1010.1 |
| 20260509073010 | 65 | 171 | 9.0 | 22.0 | 0.00 | 0.04 | 0.00 | 58 | 1009.4 |
| 20260509073003 | 66 | 185 | 10.0 | 27.0 | 0.00 | 0.04 | 0.00 | 58 | 1010.1 |
| 20260509072503 | 66 | 195 | 10.0 | 19.0 | 0.00 | 0.04 | 0.00 | 58 | 1010.1 |
| 20260509072003 | 66 | 203 | 11.0 | 19.0 | 0.00 | 0.04 | 0.00 | 57 | 1010.2 |
| 20260509071503 | 66 | 198 | 10.0 | 19.0 | 0.00 | 0.04 | 0.00 | 58 | 1010.1 |
| 20260509071501 | 65 | 210 | 10.0 | 18.0 | 0.00 | 0.04 | 0.00 | 58 | 1009.7 |
| 20260509071003 | 66 | 189 | 11.0 | 20.0 | 0.00 | 0.04 | 0.00 | 59 | 1010.1 |
| 20260509070503 | 66 | 194 | 11.0 | 20.0 | 0.00 | 0.04 | 0.00 | 59 | 1010.0 |
| 20260509070003 | 65 | 193 | 11.0 | 20.0 | 0.00 | 0.04 | 0.00 | 59 | 1010.0 |
| 20260509065503 | 65 | 189 | 11.0 | 22.0 | 0.00 | 0.04 | 0.00 | 60 | 1010.2 |
| 20260509065003 | 65 | 199 | 10.0 | 22.0 | 0.00 | 0.04 | 0.00 | 60 | 1010.2 |
| 20260509064503 | 65 | 204 | 10.0 | 20.0 | 0.00 | 0.04 | 0.00 | 60 | 1010.2 |
| 20260509064003 | 65 | 199 | 10.0 | 20.0 | 0.00 | 0.04 | 0.00 | 60 | 1010.1 |
| 20260509063503 | 64 | 200 | 9.0 | 17.0 | 0.00 | 0.04 | 0.00 | 61 | 1010.0 |
| 20260509063003 | 64 | 194 | 8.0 | 15.0 | 0.00 | 0.04 | 0.00 | 62 | 1010.0 |
| 20260509062503 | 64 | 178 | 8.0 | 16.0 | 0.00 | 0.04 | 0.00 | 61 | 1010.0 |
| 20260509062003 | 64 | 179 | 7.0 | 18.0 | 0.00 | 0.04 | 0.00 | 62 | 1009.9 |
| 20260509061504 | 64 | 195 | 6.0 | 18.0 | 0.00 | 0.04 | 0.00 | 63 | 1010.0 |
| 20260509061003 | 64 | 206 | 6.0 | 13.0 | 0.00 | 0.04 | 0.00 | 63 | 1010.0 |
| 20260509060504 | 64 | 204 | 6.0 | 13.0 | 0.00 | 0.04 | 0.00 | 63 | 1010.0 |
| 20260509060003 | 64 | 197 | 7.0 | 13.0 | 0.00 | 0.04 | 0.00 | 62 | 1010.0 |
| 20260509055503 | 64 | 194 | 8.0 | 15.0 | 0.00 | 0.04 | 0.00 | 63 | 1010.1 |
| 20260509055003 | 63 | 199 | 7.0 | 15.0 | 0.00 | 0.04 | 0.00 | 63 | 1010.1 |
| 20260509054503 | 63 | 209 | 7.0 | 12.0 | 0.00 | 0.04 | 0.00 | 63 | 1010.1 |
| 20260509054017 | 63 | 198 | 6.0 | 14.0 | 0.00 | 0.04 | 0.00 | 63 | 1010.0 |
| 20260509053517 | 63 | 192 | 6.0 | 14.0 | 0.00 | 0.04 | 0.00 | 63 | 1010.0 |
| 20260509053017 | 63 | 193 | 5.0 | 11.0 | 0.00 | 0.04 | 0.00 | 63 | 1010.0 |
| 20260509052503 | 63 | 194 | 5.0 | 9.0 | 0.00 | 0.04 | 0.00 | 64 | 1009.9 |
| 20260509052003 | 63 | 201 | 5.0 | 10.0 | 0.00 | 0.04 | 0.00 | 63 | 1010.0 |
| 20260509051503 | 63 | 202 | 5.0 | 11.0 | 0.00 | 0.04 | 0.00 | 63 | 1010.0 |
| 20260509051017 | 63 | 200 | 6.0 | 12.0 | 0.00 | 0.04 | 0.00 | 63 | 1010.0 |
| 20260509050503 | 63 | 197 | 7.0 | 14.0 | 0.00 | 0.04 | 0.00 | 63 | 1010.1 |
| 20260509050017 | 63 | 194 | 8.0 | 14.0 | 0.00 | 0.04 | 0.00 | 63 | 1010.1 |
| 20260509045503 | 63 | 194 | 8.0 | 21.0 | 0.00 | 0.04 | 0.00 | 63 | 1010.2 |
| 20260509045003 | 63 | 201 | 8.0 | 21.0 | 0.00 | 0.04 | 0.00 | 63 | 1010.2 |
| 20260509044503 | 63 | 201 | 8.0 | 15.0 | 0.00 | 0.04 | 0.00 | 63 | 1010.2 |
| 20260509044003 | 63 | 199 | 7.0 | 14.0 | 0.00 | 0.04 | 0.00 | 64 | 1010.2 |
| 20260509043503 | 62 | 203 | 7.0 | 13.0 | 0.00 | 0.04 | 0.00 | 64 | 1010.1 |
| 20260509043017 | 62 | 202 | 6.0 | 12.0 | 0.00 | 0.04 | 0.00 | 64 | 1010.2 |
| 20260509042503 | 62 | 209 | 6.0 | 12.0 | 0.00 | 0.04 | 0.00 | 64 | 1010.2 |
| 20260509042004 | 62 | 213 | 6.0 | 12.0 | 0.00 | 0.04 | 0.00 | 64 | 1010.3 |
| 20260509041503 | 62 | 206 | 6.0 | 12.0 | 0.00 | 0.04 | 0.00 | 63 | 1010.2 |
| 20260509041017 | 62 | 207 | 6.0 | 12.0 | 0.00 | 0.04 | 0.00 | 64 | 1010.2 |
| 20260509040517 | 62 | 214 | 7.0 | 13.0 | 0.00 | 0.04 | 0.00 | 64 | 1010.4 |
| 20260509040017 | 62 | 209 | 6.0 | 13.0 | 0.00 | 0.04 | 0.00 | 63 | 1010.4 |
| 20260509035503 | 62 | 204 | 6.0 | 11.0 | 0.00 | 0.04 | 0.00 | 63 | 1010.3 |
| 20260509035003 | 62 | 206 | 6.0 | 12.0 | 0.00 | 0.04 | 0.00 | 63 | 1010.5 |
| 20260509034503 | 62 | 200 | 7.0 | 12.0 | 0.00 | 0.04 | 0.00 | 63 | 1010.5 |
| 20260509034003 | 63 | 200 | 6.0 | 12.0 | 0.00 | 0.04 | 0.00 | 63 | 1010.5 |
| 20260509033517 | 62 | 205 | 6.0 | 12.0 | 0.00 | 0.04 | 0.00 | 63 | 1010.5 |
| 20260509033003 | 63 | 199 | 7.0 | 12.0 | 0.00 | 0.04 | 0.00 | 63 | 1010.6 |
| 20260509032504 | 63 | 199 | 6.0 | 11.0 | 0.00 | 0.04 | 0.00 | 62 | 1010.6 |
| 20260509032003 | 63 | 201 | 6.0 | 11.0 | 0.00 | 0.04 | 0.00 | 62 | 1010.8 |
| 20260509031503 | 63 | 192 | 6.0 | 11.0 | 0.00 | 0.04 | 0.00 | 62 | 1010.7 |
| 20260509031003 | 63 | 186 | 5.0 | 11.0 | 0.00 | 0.04 | 0.00 | 63 | 1010.9 |
| 20260509030503 | 62 | 188 | 5.0 | 10.0 | 0.00 | 0.04 | 0.00 | 63 | 1010.8 |
| 20260509030003 | 63 | 196 | 5.0 | 10.0 | 0.00 | 0.04 | 0.00 | 63 | 1010.7 |
| 20260509025503 | 63 | 202 | 5.0 | 12.0 | 0.00 | 0.04 | 0.00 | 62 | 1010.8 |
| 20260509025003 | 63 | 194 | 6.0 | 12.0 | 0.00 | 0.04 | 0.00 | 63 | 1010.8 |
| 20260509024517 | 63 | 197 | 6.0 | 13.0 | 0.00 | 0.04 | 0.00 | 63 | 1010.7 |
| 20260509024017 | 63 | 205 | 6.0 | 13.0 | 0.00 | 0.04 | 0.00 | 63 | 1010.7 |
| 20260509023503 | 63 | 202 | 6.0 | 13.0 | 0.00 | 0.04 | 0.00 | 63 | 1010.7 |
| 20260509023003 | 63 | 204 | 6.0 | 12.0 | 0.00 | 0.04 | 0.00 | 63 | 1010.7 |
| 20260509022503 | 63 | 202 | 6.0 | 13.0 | 0.00 | 0.04 | 0.00 | 64 | 1010.7 |
| 20260509022003 | 63 | 204 | 7.0 | 13.0 | 0.00 | 0.04 | 0.00 | 64 | 1010.8 |
| 20260509021503 | 63 | 203 | 6.0 | 12.0 | 0.00 | 0.04 | 0.00 | 63 | 1010.7 |
| 20260509021003 | 63 | 190 | 6.0 | 11.0 | 0.00 | 0.04 | 0.00 | 64 | 1010.7 |
| 20260509020503 | 63 | 190 | 6.0 | 12.0 | 0.00 | 0.04 | 0.00 | 63 | 1010.6 |
| 20260509020003 | 63 | 205 | 6.0 | 12.0 | 0.00 | 0.04 | 0.00 | 63 | 1010.8 |
| 20260509015517 | 63 | 218 | 6.0 | 12.0 | 0.00 | 0.04 | 0.00 | 63 | 1010.7 |